| time (UTC) | temp C | wind direction | speed KPH | gust KPH | rain 1hr cm | rain 24hr cm | rain mn cm | humidity % | barometer mb |
| 20260505124541 | 18 | 266 | 0.0 | 0.0 | 0.00 | 0.00 | 0.00 | 51 | 1015.3 |
| 20260505123054 | 18 | 269 | 0.0 | 1.6 | 0.00 | 0.00 | 0.00 | 55 | 1015.3 |
| 20260505121534 | 16 | 269 | 0.0 | 1.6 | 0.00 | 0.00 | 0.00 | 60 | 1015.3 |
| 20260505120030 | 13 | 268 | 0.0 | 0.0 | 0.00 | 0.00 | 0.00 | 67 | 1015.2 |
| 20260505114524 | 11 | 269 | 0.0 | 0.0 | 0.00 | 0.00 | 0.00 | 74 | 1015.1 |
| 20260505113033 | 8 | 269 | 0.0 | 0.0 | 0.00 | 0.00 | 0.00 | 75 | 1015.0 |
| 20260505111539 | 7 | 269 | 0.0 | 0.0 | 0.00 | 0.00 | 0.00 | 76 | 1015.1 |
| 20260505101519 | 7 | 268 | 0.0 | 0.0 | 0.00 | 0.00 | 0.00 | 76 | 1015.1 |
| 20260505100021 | 8 | 268 | 0.0 | 0.0 | 0.00 | 0.00 | 0.00 | 75 | 1015.0 |
| 20260505094517 | 8 | 269 | 0.0 | 0.0 | 0.00 | 0.00 | 0.00 | 75 | 1014.9 |
| 20260505093014 | 8 | 269 | 0.0 | 0.0 | 0.00 | 0.00 | 0.00 | 74 | 1014.8 |
| 20260505091514 | 8 | 269 | 0.0 | 0.0 | 0.00 | 0.00 | 0.00 | 73 | 1014.8 |
| 20260505090011 | 9 | 269 | 0.0 | 0.0 | 0.00 | 0.00 | 0.00 | 73 | 1014.8 |
| 20260505084516 | 10 | 269 | 0.0 | 1.6 | 0.00 | 0.00 | 0.00 | 71 | 1014.8 |
| 20260505083014 | 10 | 269 | 0.0 | 1.6 | 0.00 | 0.00 | 0.00 | 71 | 1014.8 |
| 20260505081507 | 10 | 29 | 0.0 | 0.0 | 0.00 | 0.00 | 0.00 | 71 | 1014.7 |
| 20260505080020 | 10 | 29 | 0.0 | 1.6 | 0.00 | 0.00 | 0.00 | 73 | 1014.7 |
| 20260505074503 | 10 | 33 | 0.0 | 0.0 | 0.00 | 0.00 | 0.00 | 72 | 1014.7 |
| 20260505073107 | 11 | 33 | 0.0 | 1.6 | 0.00 | 0.00 | 0.00 | 69 | 1014.8 |
| 20260505071504 | 11 | 24 | 0.0 | 1.6 | 0.00 | 0.00 | 0.00 | 69 | 1014.9 |
| 20260505070002 | 11 | 300 | 0.0 | 0.0 | 0.00 | 0.00 | 0.00 | 68 | 1014.9 |
| 20260505064604 | 11 | 297 | 0.0 | 0.0 | 0.00 | 0.00 | 0.00 | 68 | 1015.1 |
| 20260505063058 | 12 | 349 | 0.0 | 1.6 | 0.00 | 0.00 | 0.00 | 67 | 1015.3 |
| 20260505061553 | 12 | 145 | 0.0 | 1.6 | 0.00 | 0.00 | 0.00 | 67 | 1015.3 |
| 20260505060056 | 12 | 295 | 0.0 | 3.2 | 0.00 | 0.00 | 0.00 | 66 | 1015.3 |
| 20260505054600 | 12 | 141 | 0.0 | 4.8 | 0.00 | 0.00 | 0.00 | 66 | 1015.3 |
| 20260505053108 | 12 | 293 | 0.0 | 3.2 | 0.00 | 0.00 | 0.00 | 67 | 1015.3 |
| 20260505051551 | 12 | 205 | 0.0 | 4.8 | 0.00 | 0.00 | 0.00 | 68 | 1015.4 |
| 20260505041608 | 12 | 146 | 0.0 | 0.0 | 0.00 | 0.00 | 0.00 | 68 | 1015.7 |
| 20260505040044 | 12 | 146 | 0.0 | 0.0 | 0.00 | 0.00 | 0.00 | 67 | 1015.7 |
| 20260505034546 | 12 | 146 | 0.0 | 1.6 | 0.00 | 0.00 | 0.00 | 67 | 1015.9 |
| 20260505033044 | 12 | 152 | 0.0 | 1.6 | 0.00 | 0.00 | 0.00 | 69 | 1016.0 |
| 20260505031543 | 12 | 152 | 0.0 | 0.0 | 0.00 | 0.00 | 0.00 | 68 | 1016.0 |
| 20260505030043 | 12 | 152 | 0.0 | 0.0 | 0.00 | 0.00 | 0.00 | 68 | 1016.0 |
| 20260505024546 | 12 | 152 | 0.0 | 0.0 | 0.00 | 0.00 | 0.00 | 67 | 1016.0 |
| 20260505023047 | 12 | 152 | 0.0 | 1.6 | 0.00 | 0.00 | 0.00 | 66 | 1015.8 |
| 20260505021546 | 12 | 247 | 0.0 | 1.6 | 0.00 | 0.00 | 0.00 | 66 | 1015.8 |
| 20260505020042 | 13 | 248 | 0.0 | 0.0 | 0.00 | 0.00 | 0.00 | 65 | 1015.7 |
| 20260505014544 | 13 | 248 | 0.0 | 0.0 | 0.00 | 0.00 | 0.00 | 65 | 1015.6 |
| 20260505013041 | 13 | 247 | 0.0 | 0.0 | 0.00 | 0.00 | 0.00 | 64 | 1015.6 |
| 20260505011543 | 14 | 247 | 0.0 | 0.0 | 0.00 | 0.00 | 0.00 | 63 | 1015.4 |
| 20260505010045 | 14 | 221 | 0.0 | 0.0 | 0.00 | 0.00 | 0.00 | 62 | 1015.3 |
| 20260505004544 | 14 | 218 | 0.0 | 1.6 | 0.00 | 0.00 | 0.00 | 61 | 1015.2 |
| 20260505003042 | 15 | 149 | 0.0 | 0.0 | 0.00 | 0.00 | 0.00 | 59 | 1015.2 |
| 20260505001548 | 16 | 149 | 0.0 | 1.6 | 0.00 | 0.00 | 0.00 | 57 | 1015.2 |
| 20260505000043 | 16 | 145 | 0.0 | 3.2 | 0.00 | 0.00 | 0.00 | 55 | 1015.1 |
| 20260504234541 | 16 | 290 | 0.0 | 4.8 | 0.00 | 0.00 | 0.00 | 53 | 1015.0 |
| 20260504233038 | 17 | 331 | 0.0 | 4.8 | 0.00 | 0.00 | 0.00 | 52 | 1014.8 |
| 20260504231557 | 17 | 300 | 1.6 | 6.4 | 0.00 | 0.00 | 0.00 | 51 | 1014.8 |
| 20260504230045 | 18 | 237 | 0.0 | 11.3 | 0.00 | 0.00 | 0.00 | 51 | 1014.7 |
| 20260504224543 | 18 | 345 | 0.0 | 4.8 | 0.00 | 0.00 | 0.00 | 50 | 1014.7 |
| 20260504223043 | 18 | 22 | 0.0 | 3.2 | 0.00 | 0.00 | 0.00 | 51 | 1014.8 |
| 20260504221538 | 18 | 285 | 0.0 | 8.0 | 0.00 | 0.00 | 0.00 | 50 | 1014.8 |
| 20260504220037 | 18 | 296 | 0.0 | 4.8 | 0.00 | 0.00 | 0.00 | 49 | 1015.0 |
| 20260504214537 | 19 | 250 | 3.2 | 12.9 | 0.00 | 0.00 | 0.00 | 48 | 1014.9 |
| 20260504213035 | 19 | 299 | 0.0 | 6.4 | 0.00 | 0.00 | 0.00 | 48 | 1014.7 |
| 20260504211539 | 19 | 308 | 1.6 | 11.3 | 0.00 | 0.00 | 0.00 | 49 | 1014.7 |
| 20260504210051 | 20 | 54 | 4.8 | 12.9 | 0.00 | 0.00 | 0.00 | 46 | 1014.7 |
| 20260504204536 | 20 | 160 | 1.6 | 12.9 | 0.00 | 0.00 | 0.00 | 45 | 1014.8 |
| 20260504203035 | 20 | 45 | 1.6 | 6.4 | 0.00 | 0.00 | 0.00 | 46 | 1014.9 |
| 20260504201535 | 20 | 103 | 3.2 | 14.5 | 0.00 | 0.00 | 0.00 | 44 | 1015.0 |
| 20260504200033 | 20 | 238 | 1.6 | 8.0 | 0.00 | 0.00 | 0.00 | 45 | 1015.0 |
| 20260504194548 | 20 | 137 | 0.0 | 9.7 | 0.00 | 0.00 | 0.00 | 43 | 1015.3 |
| 20260504193030 | 20 | 117 | 0.0 | 9.7 | 0.00 | 0.00 | 0.00 | 43 | 1015.5 |
| 20260504191532 | 20 | 330 | 0.0 | 6.4 | 0.00 | 0.00 | 0.00 | 42 | 1015.6 |
| 20260504190029 | 20 | 308 | 1.6 | 6.4 | 0.00 | 0.00 | 0.00 | 41 | 1016.0 |
| 20260504184528 | 20 | 184 | 3.2 | 9.7 | 0.00 | 0.00 | 0.00 | 39 | 1016.1 |
| 20260504183020 | 21 | 26 | 1.6 | 12.9 | 0.00 | 0.00 | 0.00 | 39 | 1016.2 |
| 20260504181520 | 21 | 291 | 1.6 | 12.9 | 0.00 | 0.00 | 0.00 | 36 | 1016.3 |
| 20260504180021 | 20 | 15 | 1.6 | 6.4 | 0.00 | 0.00 | 0.00 | 37 | 1016.4 |
| 20260504174517 | 21 | 141 | 0.0 | 11.3 | 0.00 | 0.00 | 0.00 | 37 | 1016.6 |
| 20260504173019 | 20 | 150 | 3.2 | 8.0 | 0.00 | 0.00 | 0.00 | 26 | 1016.6 |
| 20260504171512 | 21 | 295 | 0.0 | 4.8 | 0.00 | 0.00 | 0.00 | 29 | 1016.9 |